Regional Weather Roundup
Issued by NWS

Home | Current Version | Previous Version | Text Only | Print | Product List | Glossary On
Versions: 1 2 3 4 5 6 7 8 9 10 11 12 13 14 15 16 17 18 19 20 21 22 23 24 25 26 27 28 29 30 31 32 33 34 35 36 37 38 39 40 41 42 43 44 45 46 47 48 49 50
000
ASUS44 KMEG 210910
RWRTN
TENNESSEE HOURLY STATE WEATHER ROUNDUP
NATIONAL WEATHER SERVICE MEMPHIS TN
400 AM CDT MON APR 21 2014

TNZ002-004-019-021-049-052-054-088>092-211000-
WEST TENNESSEE

CITY           SKY/WX    TMP DP  RH WIND       PRES   REMARKS
MEMPHIS INTL   CLOUDY    63  49  60 S9        30.06S
NWS MEMPHIS      N/A     62 N/A N/A MISG        N/A
JACKSON        PTCLDY    51  48  89 CALM      30.08S
DYERSBURG      PTCLDY    57  46  67 CALM      30.07F
UNION CITY     CLEAR     54  52  94 CALM      30.06S
PARIS          PTCLDY    54  43  66 CALM      30.08S
LEXINGTON      CLEAR     48  46  93 CALM      30.08S
SAVANNAH       PTCLDY    48  48 100 CALM      30.09F
$$

TNZ008-025-027-028-033-062-065-066-211000-
NORTH MIDDLE TENNESSEE

CITY           SKY/WX    TMP DP  RH WIND       PRES   REMARKS
NASHVILLE      PTCLDY    53  47  79 CALM      30.10S
DICKSON        CLEAR     61  43  51 SW6       30.10R
PORTLAND       MOCLDY    54  45  71 S6        30.09S
CLARKSVILLE    PTCLDY    51  45  79 CALM      30.08S
SMYRNA         CLEAR     49  49 100 CALM      30.12S
MURFREESBORO   CLEAR     51  46  83 CALM      30.11S
COOKEVILLE     CLEAR     46  45  93 NW8       30.12R
LIVINGSTON     CLEAR     59  40  49 SW6       30.12
GALLATIN       CLEAR     48  46  93 CALM      30.10F
CROSSVILLE     CLEAR     55  39  54 VRB3      30.15S
$$

TNZ061-075-076-078-094-096-097-211000-
SOUTH MIDDLE TENNESSEE

CITY           SKY/WX    TMP DP  RH WIND       PRES   REMARKS
LEWISBURG      CLEAR     44  42  93 CALM      30.11S
FAYETTEVILLE   CLEAR     51  45  80 CALM      30.12S
TULLAHOMA      CLEAR     48  43  81 CALM      30.13S
WINCHESTER     CLEAR     54  45  71 SE7       30.13F
MCMINNVILLE    CLEAR     46  46 100 CALM      30.13R
COLUMBIA       CLEAR     48  48 100 CALM      30.09R
SHELBYVILLE    CLEAR     50  46  87 SE3       30.13R
$$

TNZ017-018-042-046-047-211000-
NORTHEAST TENNESSEE

CITY           SKY/WX    TMP DP  RH WIND       PRES   REMARKS
TRI CITIES     PTCLDY    42  32  67 CALM      30.16S
ELIZABETHTON   SUNNY     45  30  57 CALM      30.16S
$$

TNZ012-013-036-069-073-074-211000-
CENTRAL EAST TENNESSEE

CITY           SKY/WX    TMP DP  RH WIND       PRES   REMARKS
KNOXVILLE      PTCLDY    46  42  86 CALM      30.13R
OAK RIDGE      CLEAR     51  44  77 CALM      30.15S
$$

TNZ083-085-099-211000-
SOUTHEAST TENNESSEE

CITY           SKY/WX    TMP DP  RH WIND       PRES   REMARKS
CHATTANOOGA    CLEAR     51  45  79 CALM      30.15S
$$

SKY/WX REPORTED AS FAIR MEANS FEW OR NO CLOUDS BELOW
12 THOUSAND FEET.




USA.gov is the U.S. government's official web portal to all federal, state and local government web resources and services.